Location: Columbia
(38.9520°N, 92.3340°W)
Time: 01:48:02
(UTC-05:00)

FENGYUN 3A - Visible Passes

Search period start: 28 April 2015 00:00
Search period end: 08 May 2015 00:00
Orbit: 819 x 834 km, 98.5° (Epoch: 27 April)

Date Brightness Start Highest point End Pass type
(mag) Time Alt. Az. Time Alt. Az. Time Alt. Az.
28 Apr 5.1 20:24:21 10° ESE 20:28:06 20° ENE 20:32:00 10° NNE visible
28 Apr 4.3 22:04:43 22° SSW 22:08:01 50° W 22:13:13 10° NNW visible
29 Apr 3.7 21:45:36 22° S 21:49:10 76° WSW 21:54:34 10° NNW visible
30 Apr 3.6 21:26:30 19° SSE 21:30:23 73° ENE 21:35:46 10° N visible
30 Apr 6.1 23:08:52 10° WSW 23:11:19 13° W 23:13:27 10° WNW visible
01 May 3.9 21:07:24 15° SE 21:11:39 49° ENE 21:16:50 10° N visible
01 May 5.8 22:48:53 12° SW 22:52:14 20° W 22:55:58 10° NW visible
02 May 4.5 20:48:18 10° SE 20:52:58 33° ENE 20:57:45 10° N visible
02 May 5.2 22:29:47 16° SSW 22:33:15 29° W 22:37:50 10° NW visible
03 May 4.9 20:30:15 10° ESE 20:34:18 23° ENE 20:38:31 10° NNE visible
03 May 4.6 22:10:42 18° SSW 22:14:19 43° W 22:19:25 10° NNW visible
04 May 3.9 21:51:35 19° S 21:55:27 66° WSW 22:00:48 10° NNW visible
05 May 3.6 21:32:29 17° SSE 21:36:39 84° ENE 21:42:03 10° NNW visible
05 May 6.3 23:16:21 10° WSW 23:17:43 11° W 23:18:41 10° WNW visible
06 May 3.8 21:13:23 14° SSE 21:17:54 57° ENE 21:23:10 10° N visible
06 May 6.0 22:55:06 10° SW 22:58:37 17° W 23:01:53 10° NW visible
07 May 4.3 20:54:18 10° SE 20:59:11 38° ENE 21:04:09 10° N visible
07 May 5.4 22:35:47 13° SW 22:39:35 25° W 22:43:55 10° NW visible
